Page, AZ

10:24 PM MST on February 21, 2017 (GMT -0700)
Page Municipal

Weather History for KPGA - August, 2014

Change the Weather History Date:

Saturday, August 9, 2014

  Actual Average Record
Temperature  
Mean Temperature 84 °F -  
Max Temperature 98 °F 95 °F 104 °F (1969)
Min Temperature 70 °F 70 °F 63 °F (1967)
Cooling Degree Days 19    
Growing Degree Days 34 (Base 50)    
Moisture  
Dew Point 32 °F    
Average Humidity 14    
Maximum Humidity 24    
Minimum Humidity 4    
Precipitation  
Precipitation 0.00 in - - ()
Sea Level Pressure  
Sea Level Pressure 29.88 in    
Wind  
Wind Speed 4 mph (WSW)    
Max Wind Speed 9 mph    
Max Gust Speed -    
Visibility 10 miles    
Events      
Averages and records for this station are not official NWS values.
T = Trace of Precipitation, MM = Missing Value Source: NWS Daily Summary

Daily Weather History Graph

Daily Weather History Graph

Search for Another Location

Airport or City:

Trip Planner

Search our weather history database for the weather conditions in past years. The results will help you decide how hot, cold, wet, or windy it might be!

Date:

Astronomy

Aug. 09, 2014 Rise Set
Actual Time 5:37 AM MST 7:24 PM MST
Civil Twilight 5:09 AM MST 7:52 PM MST
Nautical Twilight 4:35 AM MST 8:25 PM MST
Astronomical Twilight 3:59 AM MST 9:01 PM MST
Moon 6:29 PM MST (8/9) 4:22 AM MST (8/9)
Length of Visible Light 14h 42m
Length of Day
13h 46m
Waxing Gibbous, 99% of the Moon is Illuminated
Aug 9
Waxing Gibbous
Aug 10
Full
Aug 17
Last Quarter
Aug 25
New
Sep 2
First Quarter

Hourly Weather History & Observations

Time (MST) Temp. Dew Point Humidity Pressure Visibility Wind Dir Wind Speed Gust Speed Precip Events Conditions
12:53 AM 82.0 °F 32.0 °F 16% 29.84 in 10.0 mi Variable 3.5 mph - N/A   Clear
1:53 AM 77.0 °F 33.1 °F 20% 29.86 in 10.0 mi NW 3.5 mph - N/A   Clear
2:53 AM 73.9 °F 33.1 °F 22% 29.86 in 10.0 mi Calm Calm - N/A   Clear
3:53 AM 72.0 °F 33.1 °F 24% 29.87 in 10.0 mi Calm Calm - N/A   Clear
4:53 AM 71.1 °F 30.9 °F 23% 29.88 in 10.0 mi SE 6.9 mph - N/A   Clear
5:53 AM 70.0 °F 30.9 °F 24% 29.90 in 10.0 mi SE 9.2 mph - N/A   Clear
6:53 AM 75.0 °F 30.9 °F 20% 29.91 in 10.0 mi SSE 9.2 mph - N/A   Clear
7:53 AM 79.0 °F 30.9 °F 17% 29.93 in 10.0 mi ESE 3.5 mph - N/A   Clear
8:53 AM 82.9 °F 32.0 °F 16% 29.93 in 10.0 mi NNE 4.6 mph - N/A   Clear
9:53 AM 87.8 °F 32.0 °F 14% 30.15 in 10.0 mi Variable 3.5 mph - N/A   Clear
10:53 AM 90.0 °F 30.9 °F 12% 29.92 in 10.0 mi Variable 4.6 mph - N/A   Clear
11:53 AM 91.9 °F 30.0 °F 11% 29.90 in 10.0 mi Variable 6.9 mph - N/A   Clear
12:53 PM 93.9 °F 30.9 °F 11% 29.89 in 10.0 mi NW 4.6 mph - N/A   Clear
1:53 PM 93.9 °F 30.0 °F 10% 29.88 in 10.0 mi Calm Calm - N/A   Clear
2:53 PM 95.0 °F 30.9 °F 10% 29.85 in 10.0 mi Variable 4.6 mph - N/A   Clear
3:53 PM 96.1 °F 30.9 °F 10% 29.83 in 10.0 mi Variable 3.5 mph - N/A   Clear
4:53 PM 97.0 °F 30.9 °F 10% 29.81 in 10.0 mi North 8.1 mph - N/A   Clear
5:53 PM 93.9 °F 33.1 °F 12% 29.82 in 10.0 mi SW 8.1 mph - N/A   Clear
6:53 PM 93.0 °F 33.1 °F 12% 29.81 in 10.0 mi SSW 4.6 mph - N/A   Clear
7:53 PM 89.6 °F 35.6 °F 15% 30.04 in 10.0 mi SSW 3.5 mph - N/A   Clear
8:53 PM 88.0 °F 36.0 °F 16% 29.83 in 10.0 mi SW 4.6 mph - N/A   Clear
9:53 PM 87.1 °F 35.1 °F 16% 29.84 in 10.0 mi West 4.6 mph - N/A   Clear
10:53 PM 87.1 °F 33.1 °F 15% 29.85 in 10.0 mi NW 4.6 mph - N/A   Clear
11:53 PM 82.9 °F 34.0 °F 17% 29.86 in 10.0 mi West 5.8 mph - N/A   Clear